| time (UTC) | temp F | wind direction | speed MPH | gust MPH | rain 1hr in | rain 24hr in | rain mn in | humidity % | barometer mb |
| 20260510020014 | 51 | 267 | 0.0 | 0.0 | 0.00 | 0.28 | 0.28 | 95 | 1010.8 |
| 20260510014513 | 51 | 267 | 0.0 | 0.0 | 0.00 | 0.28 | 0.28 | 95 | 1010.9 |
| 20260510013012 | 51 | 267 | 0.0 | 0.0 | 0.00 | 0.28 | 0.28 | 95 | 1010.7 |
| 20260510011512 | 51 | 267 | 0.0 | 0.0 | 0.00 | 0.28 | 0.28 | 95 | 1010.7 |
| 20260510010011 | 52 | 267 | 0.0 | 0.0 | 0.00 | 0.28 | 0.28 | 94 | 1010.3 |
| 20260510004510 | 53 | 267 | 0.0 | 0.0 | 0.00 | 0.28 | 0.28 | 94 | 1010.1 |
| 20260510003010 | 53 | 267 | 0.0 | 0.0 | 0.00 | 0.28 | 0.28 | 95 | 1010.3 |
| 20260510001509 | 53 | 267 | 0.0 | 0.0 | 0.00 | 0.28 | 0.28 | 95 | 1010.1 |
| 20260510000008 | 53 | 267 | 0.0 | 0.0 | 0.00 | 0.28 | 0.28 | 95 | 1010.1 |
| 20260509234508 | 53 | 267 | 0.0 | 0.0 | 0.00 | 0.28 | 0.28 | 95 | 1009.9 |
| 20260509233007 | 53 | 267 | 0.0 | 0.0 | 0.00 | 0.28 | 0.28 | 94 | 1009.9 |
| 20260509231507 | 54 | 267 | 0.0 | 1.0 | 0.00 | 0.28 | 0.28 | 94 | 1009.9 |
| 20260509230006 | 54 | 257 | 0.0 | 1.0 | 0.00 | 0.28 | 0.28 | 94 | 1009.9 |
| 20260509224504 | 54 | 257 | 0.0 | 0.0 | 0.00 | 0.28 | 0.28 | 95 | 1010.0 |
| 20260509223004 | 54 | 257 | 0.0 | 0.0 | 0.02 | 0.28 | 0.28 | 94 | 1010.2 |
| 20260509221503 | 54 | 257 | 0.0 | 0.0 | 0.04 | 0.28 | 0.28 | 94 | 1010.2 |
| 20260509220002 | 54 | 257 | 0.0 | 1.0 | 0.08 | 0.28 | 0.28 | 94 | 1010.1 |
| 20260509214500 | 53 | 257 | 0.0 | 1.0 | 0.12 | 0.28 | 0.28 | 94 | 1010.3 |
| 20260509213101 | 53 | 257 | 0.0 | 0.0 | 0.13 | 0.26 | 0.26 | 94 | 1010.6 |
| 20260509211607 | 54 | 257 | 0.0 | 0.0 | 0.13 | 0.24 | 0.24 | 94 | 1010.5 |
| 20260509210100 | 54 | 257 | 0.0 | 1.0 | 0.11 | 0.20 | 0.20 | 94 | 1010.3 |
| 20260509204603 | 54 | 257 | 0.0 | 0.0 | 0.09 | 0.16 | 0.16 | 94 | 1010.3 |
| 20260509203058 | 54 | 257 | 0.0 | 0.0 | 0.07 | 0.13 | 0.13 | 93 | 1010.5 |
| 20260509201557 | 54 | 257 | 0.0 | 1.0 | 0.05 | 0.11 | 0.11 | 92 | 1010.8 |
| 20260509200109 | 54 | 257 | 0.0 | 4.0 | 0.03 | 0.09 | 0.09 | 91 | 1010.8 |
| 20260509194557 | 55 | 253 | 1.0 | 3.0 | 0.01 | 0.07 | 0.07 | 90 | 1010.8 |
| 20260509193056 | 55 | 253 | 0.0 | 1.0 | 0.02 | 0.06 | 0.06 | 91 | 1010.9 |
| 20260509191555 | 55 | 253 | 0.0 | 0.0 | 0.03 | 0.06 | 0.06 | 90 | 1010.7 |
| 20260509190055 | 55 | 253 | 1.0 | 3.0 | 0.03 | 0.06 | 0.06 | 89 | 1010.7 |
| 20260509184555 | 56 | 278 | 0.0 | 3.0 | 0.03 | 0.07 | 0.06 | 87 | 1011.0 |
| 20260509183103 | 57 | 305 | 0.0 | 4.0 | 0.01 | 0.05 | 0.04 | 86 | 1011.7 |
| 20260509181553 | 59 | 224 | 2.0 | 5.0 | 0.00 | 0.04 | 0.03 | 80 | 1011.5 |
| 20260509180052 | 61 | 253 | 3.0 | 13.0 | 0.00 | 0.04 | 0.03 | 71 | 1010.9 |
| 20260509174553 | 61 | 253 | 1.0 | 9.0 | 0.00 | 0.04 | 0.03 | 72 | 1010.7 |
| 20260509173052 | 61 | 221 | 1.0 | 7.0 | 0.00 | 0.04 | 0.03 | 72 | 1010.5 |
| 20260509171546 | 60 | 250 | 1.0 | 3.0 | 0.00 | 0.04 | 0.03 | 77 | 1010.5 |
| 20260509170041 | 59 | 274 | 0.0 | 3.0 | 0.00 | 0.04 | 0.03 | 78 | 1010.6 |
| 20260509164539 | 59 | 209 | 0.0 | 3.0 | 0.00 | 0.04 | 0.03 | 79 | 1010.9 |
| 20260509163046 | 59 | 110 | 0.0 | 2.0 | 0.00 | 0.04 | 0.03 | 81 | 1010.9 |
| 20260509161542 | 58 | 80 | 0.0 | 2.0 | 0.00 | 0.04 | 0.03 | 83 | 1011.4 |
| 20260509160032 | 58 | 87 | 0.0 | 2.0 | 0.00 | 0.04 | 0.03 | 86 | 1011.4 |
| 20260509154529 | 57 | 41 | 0.0 | 3.0 | 0.00 | 0.04 | 0.03 | 86 | 1011.5 |
| 20260509153129 | 56 | 133 | 0.0 | 1.0 | 0.00 | 0.04 | 0.03 | 88 | 1011.9 |
| 20260509151525 | 55 | 133 | 0.0 | 0.0 | 0.00 | 0.04 | 0.03 | 90 | 1011.8 |
| 20260509150035 | 55 | 133 | 0.0 | 2.0 | 0.00 | 0.04 | 0.03 | 90 | 1012.0 |
| 20260509144522 | 55 | 120 | 0.0 | 0.0 | 0.00 | 0.04 | 0.03 | 91 | 1011.7 |
| 20260509143021 | 55 | 120 | 0.0 | 2.0 | 0.00 | 0.04 | 0.03 | 92 | 1011.8 |
| 20260509141517 | 53 | 120 | 0.0 | 2.0 | 0.00 | 0.04 | 0.03 | 93 | 1011.8 |
| 20260509140014 | 52 | 114 | 0.0 | 2.0 | 0.00 | 0.04 | 0.03 | 93 | 1011.9 |
| 20260509134512 | 52 | 228 | 0.0 | 1.0 | 0.01 | 0.04 | 0.03 | 94 | 1011.9 |
| 20260509133008 | 51 | 228 | 0.0 | 2.0 | 0.01 | 0.04 | 0.03 | 94 | 1012.0 |
| 20260509131506 | 51 | 228 | 0.0 | 2.0 | 0.01 | 0.04 | 0.03 | 94 | 1012.2 |
| 20260509130002 | 50 | 228 | 0.0 | 1.0 | 0.01 | 0.04 | 0.03 | 94 | 1012.2 |
| 20260509124501 | 50 | 228 | 0.0 | 2.0 | 0.00 | 0.03 | 0.02 | 95 | 1012.3 |
| 20260509123119 | 49 | 228 | 0.0 | 2.0 | 0.00 | 0.03 | 0.02 | 94 | 1012.5 |
| 20260509121600 | 49 | 228 | 0.0 | 2.0 | 0.00 | 0.03 | 0.02 | 95 | 1012.3 |
| 20260509120055 | 49 | 228 | 0.0 | 2.0 | 0.00 | 0.03 | 0.02 | 95 | 1012.0 |
| 20260509114554 | 49 | 228 | 0.0 | 2.0 | 0.00 | 0.03 | 0.02 | 95 | 1012.2 |
| 20260509113055 | 49 | 228 | 0.0 | 0.0 | 0.00 | 0.03 | 0.02 | 95 | 1012.6 |
| 20260509111551 | 48 | 228 | 0.0 | 0.0 | 0.00 | 0.03 | 0.02 | 95 | 1012.6 |
| 20260509110050 | 48 | 228 | 0.0 | 0.0 | 0.00 | 0.03 | 0.02 | 95 | 1012.4 |
| 20260509104550 | 48 | 228 | 0.0 | 0.0 | 0.00 | 0.04 | 0.02 | 95 | 1012.3 |
| 20260509103058 | 48 | 228 | 0.0 | 0.0 | 0.00 | 0.04 | 0.02 | 95 | 1012.2 |
| 20260509101549 | 48 | 228 | 0.0 | 0.0 | 0.00 | 0.04 | 0.02 | 95 | 1011.9 |
| 20260509100052 | 48 | 228 | 0.0 | 0.0 | 0.00 | 0.04 | 0.02 | 95 | 1012.0 |
| 20260509094548 | 48 | 228 | 0.0 | 0.0 | 0.00 | 0.04 | 0.02 | 95 | 1012.0 |
| 20260509093047 | 48 | 228 | 0.0 | 0.0 | 0.00 | 0.04 | 0.02 | 95 | 1012.0 |
| 20260509091546 | 48 | 228 | 0.0 | 1.0 | 0.00 | 0.04 | 0.02 | 95 | 1012.3 |
| 20260509090053 | 48 | 228 | 0.0 | 2.0 | 0.00 | 0.04 | 0.02 | 95 | 1012.2 |
| 20260509084548 | 48 | 228 | 0.0 | 0.0 | 0.00 | 0.04 | 0.02 | 95 | 1012.0 |
| 20260509083051 | 48 | 228 | 0.0 | 0.0 | 0.00 | 0.04 | 0.02 | 94 | 1012.3 |
| 20260509081543 | 48 | 228 | 0.0 | 0.0 | 0.00 | 0.04 | 0.02 | 94 | 1012.2 |
| 20260509080043 | 48 | 228 | 0.0 | 0.0 | 0.00 | 0.04 | 0.02 | 94 | 1012.3 |
| 20260509074546 | 48 | 228 | 0.0 | 0.0 | 0.00 | 0.04 | 0.02 | 94 | 1012.4 |
| 20260509073042 | 48 | 228 | 0.0 | 0.0 | 0.00 | 0.04 | 0.02 | 94 | 1012.4 |
| 20260509071544 | 48 | 228 | 0.0 | 0.0 | 0.00 | 0.04 | 0.02 | 94 | 1012.2 |
| 20260509070042 | 48 | 228 | 0.0 | 0.0 | 0.00 | 0.04 | 0.02 | 94 | 1012.0 |
| 20260509064539 | 48 | 228 | 0.0 | 0.0 | 0.00 | 0.08 | 0.02 | 94 | 1012.2 |
| 20260509063036 | 48 | 228 | 0.0 | 0.0 | 0.01 | 0.08 | 0.02 | 93 | 1012.6 |
| 20260509061536 | 48 | 228 | 0.0 | 0.0 | 0.02 | 0.08 | 0.02 | 93 | 1012.5 |
| 20260509060038 | 48 | 228 | 0.0 | 1.0 | 0.02 | 0.08 | 0.02 | 93 | 1012.5 |
| 20260509054532 | 48 | 228 | 0.0 | 0.0 | 0.02 | 0.10 | 0.02 | 92 | 1012.8 |
| 20260509053031 | 48 | 228 | 0.0 | 3.0 | 0.01 | 0.09 | 0.01 | 92 | 1012.8 |
| 20260509051530 | 48 | 228 | 0.0 | 0.0 | 0.00 | 0.08 | 0.00 | 91 | 1012.8 |
| 20260509050043 | 48 | 228 | 0.0 | 0.0 | 0.00 | 0.08 | 0.00 | 91 | 1013.2 |
| 20260509044527 | 48 | 228 | 0.0 | 0.0 | 0.00 | 0.08 | 0.00 | 90 | 1012.9 |
| 20260509043025 | 48 | 228 | 0.0 | 0.0 | 0.00 | 0.08 | 0.00 | 90 | 1012.9 |
| 20260509041523 | 49 | 228 | 0.0 | 0.0 | 0.00 | 0.08 | 0.00 | 89 | 1012.9 |
| 20260509040019 | 49 | 228 | 0.0 | 0.0 | 0.00 | 0.08 | 0.08 | 89 | 1013.0 |
| 20260509034519 | 49 | 228 | 0.0 | 0.0 | 0.00 | 0.08 | 0.08 | 88 | 1012.8 |
| 20260509033018 | 49 | 228 | 0.0 | 0.0 | 0.00 | 0.08 | 0.08 | 87 | 1013.0 |
| 20260509031529 | 50 | 228 | 0.0 | 0.0 | 0.00 | 0.08 | 0.08 | 87 | 1013.2 |
| 20260509030016 | 50 | 228 | 0.0 | 0.0 | 0.00 | 0.08 | 0.08 | 87 | 1013.1 |
| 20260509024529 | 50 | 228 | 0.0 | 0.0 | 0.00 | 0.08 | 0.08 | 86 | 1013.1 |
| 20260509023018 | 50 | 228 | 0.0 | 0.0 | 0.00 | 0.08 | 0.08 | 85 | 1013.0 |
| 20260509021516 | 50 | 228 | 0.0 | 0.0 | 0.00 | 0.08 | 0.08 | 85 | 1012.8 |